Location: Unspecified
(0.0000°N, 0.0000°E)
Time: 14:50:27
(UTC+00:00)

Envisat - Visible Passes

Search period start: 01 August 2021 00:00
Search period end: 11 August 2021 00:00
Orbit: 764 x 766 km, 98.2° (Epoch: 31 July)

Date Brightness Start Highest point End Pass type
(mag) Time Alt. Az. Time Alt. Az. Time Alt. Az.
01 Aug 2.9 04:57:29 10° N 05:02:33 84° W 05:07:38 10° SSW visible
02 Aug 4.5 04:21:17 10° NE 04:25:49 34° ESE 04:30:22 10° SSE visible
03 Aug 5.8 03:47:25 10° E 03:49:06 12° ESE 03:50:48 10° ESE visible
03 Aug 3.5 05:23:07 10° N 05:27:49 39° WNW 05:32:33 10° SSW visible
04 Aug 3.2 04:46:03 10° NNE 04:51:05 71° ESE 04:56:09 10° S visible
05 Aug 5.1 04:10:17 10° NE 04:14:22 25° ESE 04:18:27 10° SSE visible
06 Aug 3.1 05:11:26 10° N 05:16:22 54° WNW 05:21:20 10° SSW visible
07 Aug 3.8 04:34:43 10° NNE 04:39:38 51° ESE 04:44:33 10° S visible
08 Aug 5.5 03:59:31 10° ENE 04:02:55 18° ESE 04:06:19 10° SE visible
08 Aug 4.0 05:37:29 10° NNW 05:41:39 26° WNW 05:45:50 10° SW visible
09 Aug 2.9 04:59:51 10° N 05:04:54 76° WNW 05:09:59 10° SSW visible
10 Aug 4.4 04:23:31 10° NE 04:28:11 37° ESE 04:32:50 10° S visible
